Location: Lucerne Valley
(34.4439°N, 116.9669°E)
Time: 11:30:37
(UTC-07:00)

ISS - Pass Details

Date: 15 October 2017
Orbit: 401 x 408 km, 51.6° (Epoch: 19 October)

Event Time Altitude Azimuth Distance (km) Brightness Sun altitude
Rises 03:14:53 0° 321° (NW) 2,320 0.5 -8.4°
Reaches altitude 10° 03:17:06 10° 331° (NNW) 1,459 -0.7 -8.8°
Maximum altitude 03:20:05 32° 37° (NE) 721 -2.9 -9.4°
Enters shadow 03:22:25 14° 97° (E) 1,227 -2.0 -9.9°
